DL1NER Weather Reports


Display with metric or nautical units.
time (UTC)temp
F
wind
direction
speed
MPH
gust
MPH
rain 1hr
in
rain 24hr
in
rain mn
in
humidity
%
barometer
mb
20260901163012 71 275 5.0 11.0 0.00 0.00 0.00 53 1020.0
20260901162013 71 273 3.0 7.0 0.00 0.00 0.00 53 1020.0
20260901161012 71 298 3.0 7.0 0.00 0.00 0.00 53 1020.1
20260901160012 71 271 4.0 10.0 0.00 0.00 0.00 53 1020.2
20260901155012 72 286 3.0 8.0 0.00 0.00 0.00 53 1020.1
20260901154012 72 269 4.0 9.0 0.00 0.00 0.00 51 1020.0
20260901153012 72 314 3.0 7.0 0.00 0.00 0.00 53 1020.0
20260901152012 71 317 3.0 7.0 0.00 0.00 0.00 53 1020.1
20260901151012 72 311 3.0 8.0 0.00 0.00 0.00 52 1020.1
20260901150013 73 298 4.0 9.0 0.00 0.00 0.00 52 1020.0
20260901145012 73 340 3.0 9.0 0.00 0.00 0.00 51 1020.0
20260901144012 72 293 1.0 4.0 0.00 0.00 0.00 51 1020.0
20260901143012 71 293 3.0 7.0 0.00 0.00 0.00 51 1020.0
20260901142012 71 257 2.0 8.0 0.00 0.00 0.00 53 1020.3
20260901141012 71 220 2.0 5.0 0.00 0.00 0.00 53 1020.3
20260901140012 71 260 2.0 5.0 0.00 0.00 0.00 54 1020.4
20260901135012 71 259 4.0 8.0 0.00 0.00 0.00 54 1020.5
20260901134012 72 259 2.0 7.0 0.00 0.00 0.00 54 1020.5
20260901133011 72 288 4.0 10.0 0.00 0.00 0.00 53 1020.6
20260901132012 73 273 4.0 9.0 0.00 0.00 0.00 52 1020.5
20260901131012 74 208 4.0 11.0 0.00 0.00 0.00 52 1020.5
20260901130011 74 286 3.0 8.0 0.00 0.00 0.00 52 1020.6
20260901125012 75 232 6.0 10.0 0.00 0.00 0.00 49 1020.7
20260901124011 75 199 5.0 11.0 0.00 0.00 0.00 50 1020.7
20260901123013 74 216 5.0 12.0 0.00 0.00 0.00 50 1020.7
20260901122011 73 265 4.0 10.0 0.00 0.00 0.00 52 1020.7
20260901121012 72 261 3.0 8.0 0.00 0.00 0.00 53 1020.9
20260901120012 72 212 4.0 12.0 0.00 0.00 0.00 55 1021.0
20260901115011 71 170 4.0 11.0 0.00 0.00 0.00 54 1021.0
20260901114012 72 250 5.0 12.0 0.00 0.00 0.00 54 1021.0
20260901113012 71 263 4.0 10.0 0.00 0.00 0.00 56 1021.1
20260901112011 70 217 6.0 11.0 0.00 0.00 0.00 56 1021.1
20260901111012 71 269 5.0 12.0 0.00 0.00 0.00 54 1021.2
20260901105011 71 232 6.0 14.0 0.00 0.00 0.00 52 1021.2
20260901104012 71 232 6.0 14.0 0.00 0.00 0.00 52 1021.2
20260901103010 71 221 7.0 16.0 0.00 0.00 0.00 56 1021.1
20260901102012 71 264 7.0 14.0 0.00 0.00 0.00 55 1021.2
20260901101010 70 275 5.0 16.0 0.00 0.00 0.00 55 1021.1
20260901100011 70 274 7.0 14.0 0.00 0.00 0.00 59 1021.2
20260901095010 69 272 6.0 15.0 0.00 0.00 0.00 56 1021.2
20260901094011 69 256 6.0 17.0 0.00 0.00 0.00 59 1021.2
20260901093011 69 282 6.0 15.0 0.00 0.00 0.00 57 1021.3
20260901092010 69 306 7.0 16.0 0.00 0.00 0.00 59 1021.2
20260901091010 69 261 5.0 13.0 0.00 0.00 0.00 60 1021.3
20260901090011 68 242 6.0 14.0 0.00 0.00 0.00 62 1021.2
20260901085017 67 256 8.0 13.0 0.00 0.00 0.00 63 1021.3
20260901084011 67 167 5.0 14.0 0.00 0.00 0.00 63 1021.3
20260901083010 66 219 4.0 12.0 0.00 0.00 0.00 64 1021.3
20260901082011 66 219 3.0 12.0 0.00 0.00 0.00 64 1021.3
20260901081010 65 226 5.0 10.0 0.00 0.00 0.00 67 1021.2
20260901080011 65 226 7.0 10.0 0.00 0.00 0.00 67 1021.2
20260901075009 64 259 3.0 9.0 0.00 0.00 0.00 68 1021.2
20260901074010 64 259 3.0 9.0 0.00 0.00 0.00 68 1021.2
20260901073010 63 175 2.0 8.0 0.00 0.00 0.00 72 1020.9
20260901072011 63 175 2.0 8.0 0.00 0.00 0.00 72 1020.9
20260901071010 62 252 2.0 6.0 0.00 0.00 0.00 74 1020.9
20260901070010 60 227 1.0 6.0 0.00 0.00 0.00 74 1021.0
20260901065010 60 204 1.0 4.0 0.00 0.00 0.00 77 1021.0
20260901064010 59 204 2.0 4.0 0.00 0.00 0.00 79 1021.0
20260901063011 58 199 1.0 5.0 0.00 0.00 0.00 86 1021.0
20260901062010 57 200 1.0 5.0 0.00 0.00 0.00 90 1021.0
20260901061009 57 198 0.0 2.0 0.00 0.00 0.00 90 1020.9
20260901060009 56 198 0.0 1.0 0.00 0.00 0.00 89 1020.9
20260901055010 56 198 0.0 4.0 0.00 0.00 0.00 89 1020.9
20260901054010 55 198 1.0 2.0 0.00 0.00 0.00 90 1021.0
20260901053009 55 198 1.0 2.0 0.00 0.00 0.00 89 1020.8
20260901052010 55 198 0.0 1.0 0.00 0.00 0.00 88 1020.8
20260901051009 55 198 0.0 0.0 0.00 0.00 0.00 88 1020.7
20260901050009 55 198 0.0 0.0 0.00 0.00 0.00 88 1020.7
20260901045009 55 198 1.0 3.0 0.00 0.00 0.00 86 1020.8
20260901044008 55 197 1.0 3.0 0.00 0.00 0.00 86 1020.7
20260901043008 55 197 1.0 3.0 0.00 0.00 0.00 86 1020.7
20260901042011 55 197 0.0 2.0 0.00 0.00 0.00 85 1020.6
20260901041010 55 197 0.0 2.0 0.00 0.00 0.00 85 1020.6
20260901040015 55 197 1.0 3.0 0.00 0.00 0.00 84 1020.6
20260901035008 55 196 1.0 3.0 0.00 0.00 0.00 81 1020.4
20260901034008 55 196 1.0 3.0 0.00 0.00 0.00 81 1020.4
20260901033008 56 196 1.0 3.0 0.00 0.00 0.00 80 1020.3
20260901032008 56 196 1.0 2.0 0.00 0.00 0.00 78 1020.1
20260901031008 56 196 1.0 3.0 0.00 0.00 0.00 77 1020.2
20260901030008 56 196 1.0 4.0 0.00 0.00 0.00 77 1020.1
20260901025008 57 196 2.0 3.0 0.00 0.00 0.00 77 1020.1
20260901024008 57 195 1.0 3.0 0.00 0.00 0.00 77 1020.1
20260901022013 57 195 2.0 5.0 0.00 0.00 0.00 76 1019.9
20260901021012 57 213 1.0 4.0 0.00 0.00 0.00 75 1019.8
20260901020013 57 211 1.0 3.0 0.00 0.00 0.00 74 1019.8
20260901015013 58 205 0.0 1.0 0.00 0.00 0.00 74 1019.8
20260901014012 58 205 0.0 3.0 0.00 0.00 0.00 74 1019.6
20260901013012 58 205 2.0 5.0 0.00 0.00 0.00 74 1019.5
20260901012012 58 225 2.0 5.0 0.00 0.00 0.00 73 1019.5
20260901011012 58 217 2.0 7.0 0.00 0.00 0.00 73 1019.4
20260901010013 59 243 2.0 4.0 0.00 0.00 0.00 73 1019.4
20260901005012 59 242 2.0 5.0 0.00 0.00 0.00 72 1019.4
20260901004012 59 204 2.0 5.0 0.00 0.00 0.00 73 1019.3
20260901003013 59 213 2.0 5.0 0.00 0.00 0.00 72 1019.2
20260901002012 59 218 3.0 8.0 0.00 0.00 0.00 72 1019.2
20260901001012 59 196 2.0 8.0 0.00 0.00 0.00 72 1019.2
20260901000012 59 219 2.0 5.0 0.00 0.00 0.00 72 1019.2
20260831235012 60 192 3.0 7.0 0.00 0.00 0.00 71 1019.1
20260831234012 60 195 1.0 5.0 0.00 0.00 0.00 71 1019.1
20260831233012 60 198 0.0 2.0 0.00 0.00 0.00 70 1019.0
20260831232012 61 198 1.0 3.0 0.00 0.00 0.00 69 1019.1
20260831231012 61 198 1.0 3.0 0.00 0.00 0.00 69 1019.2
20260831230012 62 198 2.0 5.0 0.00 0.00 0.00 68 1019.2
20260831225012 62 252 2.0 5.0 0.00 0.00 0.00 67 1019.2
20260831224012 62 236 3.0 6.0 0.00 0.00 0.00 68 1019.3
20260831223011 62 236 3.0 9.0 0.00 0.00 0.00 67 1019.3
20260831222012 62 240 4.0 9.0 0.00 0.00 0.00 67 1019.2
20260831221011 62 215 4.0 12.0 0.00 0.00 0.00 67 1019.2
20260831220012 62 185 4.0 13.0 0.00 0.00 0.00 67 1019.0
20260831215012 62 238 4.0 10.0 0.00 0.34 0.34 67 1019.0
20260831214011 63 186 4.0 9.0 0.00 0.34 0.34 66 1018.8
20260831213011 63 231 3.0 7.0 0.00 0.34 0.34 65 1018.9
20260831212011 63 192 4.0 9.0 0.00 0.34 0.34 65 1018.8
20260831211012 63 222 5.0 10.0 0.00 0.34 0.34 64 1018.7
20260831210011 63 245 5.0 11.0 0.00 0.34 0.34 64 1018.6
20260831205011 64 254 7.0 17.0 0.00 0.34 0.34 63 1018.4
20260831204011 63 236 4.0 15.0 0.00 0.34 0.34 65 1018.3
20260831203011 63 231 4.0 11.0 0.00 0.34 0.34 65 1018.2
20260831202011 63 188 4.0 10.0 0.00 0.34 0.34 66 1018.2
20260831201011 62 217 4.0 10.0 0.00 0.34 0.34 66 1018.3
20260831200012 62 249 4.0 11.0 0.00 0.34 0.34 66 1018.2
20260831195011 62 223 3.0 9.0 0.00 0.34 0.34 67 1017.8
20260831194011 63 205 2.0 6.0 0.00 0.34 0.34 67 1017.8
20260831193011 63 221 2.0 6.0 0.00 0.34 0.34 65 1017.7
20260831192011 63 227 2.0 6.0 0.00 0.34 0.34 66 1017.6
20260831191010 63 231 3.0 9.0 0.00 0.34 0.34 65 1017.6
20260831190011 63 224 3.0 7.0 0.00 0.34 0.34 64 1017.4
20260831185011 64 220 3.0 8.0 0.00 0.34 0.34 64 1017.4
20260831184010 64 229 3.0 11.0 0.00 0.34 0.34 63 1017.4
20260831183010 65 231 5.0 9.0 0.00 0.34 0.34 62 1017.3
20260831182012 65 208 3.0 11.0 0.00 0.34 0.34 61 1017.1
20260831181011 65 248 4.0 11.0 0.00 0.34 0.34 59 1017.0
20260831180011 66 269 4.0 14.0 0.00 0.34 0.34 58 1016.8
20260831175010 66 207 4.0 10.0 0.00 0.34 0.34 58 1016.7
20260831174011 67 220 6.0 14.0 0.00 0.34 0.34 57 1016.6
20260831173010 68 243 9.0 23.0 0.00 0.34 0.34 57 1016.6
20260831172010 70 259 11.0 30.0 0.00 0.34 0.34 53 1016.3
20260831171010 71 200 7.0 19.0 0.00 0.34 0.34 52 1015.8
20260831170010 71 200 7.0 19.0 0.00 0.34 0.34 52 1015.8
20260831165017 71 230 5.0 14.0 0.00 0.34 0.34 52 1015.7
20260831164009 72 192 6.0 16.0 0.00 0.34 0.34 51 1015.6